Tiempo cada hora Barstow Heights

Hoy, 6 Marzo, Sábado

Tiempo Temperatura Precipitaciones Viento Presión Humedad
00:00 +14°C° 0 mm 2 mps 693 mmHg 29%
01:00 +14°C° 0 mm 2 mps 693 mmHg 31%
02:00 +12°C° 0 mm 3 mps 693 mmHg 33%
03:00 +12°C° 0 mm 3 mps 693 mmHg 35%
04:00 +11°C° 0 mm 3 mps 693 mmHg 37%
05:00 +11°C° 0 mm 3 mps 693 mmHg 42%
06:00 +10°C° 0 mm 3 mps 693 mmHg 46%
07:00 +10°C° 0 mm 3 mps 693 mmHg 51%
08:00 +12°C° 0 mm 3 mps 693 mmHg 45%
09:00 +13°C° 0 mm 3 mps 693 mmHg 39%
10:00 +15°C° 0 mm 4 mps 693 mmHg 33%
11:00 +18°C° 0 mm 4 mps 693 mmHg 28%
12:00 +19°C° 0 mm 5 mps 693 mmHg 23%
13:00 +21°C° 0 mm 5 mps 693 mmHg 18%
14:00 +21°C° 0 mm 6 mps 693 mmHg 19%
15:00 +21°C° 0 mm 6 mps 692 mmHg 20%
16:00 +21°C° 0 mm 7 mps 692 mmHg 21%
17:00 +19°C° 0 mm 6 mps 692 mmHg 25%
18:00 +17°C° 0 mm 6 mps 692 mmHg 29%
19:00 +15°C° 0 mm 5 mps 692 mmHg 33%
20:00 +14°C° 0 mm 4 mps 692 mmHg 39%
21:00 +13°C° 0 mm 4 mps 693 mmHg 44%
22:00 +12°C° 0 mm 3 mps 693 mmHg 49%
23:00 +11°C° 0 mm 3 mps 693 mmHg 53%

Mañana, 7 Marzo, Domingo

Tiempo Temperatura Precipitaciones Viento Presión Humedad
00:00 +11°C° 0 mm 3 mps 692 mmHg 56%
01:00 +10°C° 0 mm 2 mps 692 mmHg 59%
02:00 +9°C° 0 mm 2 mps 692 mmHg 62%
03:00 +9°C° 0 mm 2 mps 692 mmHg 65%
04:00 +8°C° 0 mm 2 mps 692 mmHg 68%
05:00 +10°C° 0 mm 1 mps 692 mmHg 67%
06:00 +10°C° 0 mm 1 mps 692 mmHg 65%
07:00 +10°C° 0 mm 1 mps 692 mmHg 64%
08:00 +11°C° 0 mm 1 mps 693 mmHg 56%
09:00 +13°C° 0 mm 1 mps 693 mmHg 48%
10:00 +14°C° 0 mm 1 mps 693 mmHg 41%
11:00 +16°C° 0 mm 1 mps 693 mmHg 35%
12:00 +17°C° 0 mm 2 mps 693 mmHg 30%
13:00 +18°C° 0 mm 2 mps 693 mmHg 25%
14:00 +19°C° 0 mm 3 mps 693 mmHg 23%
15:00 +19°C° 0 mm 4 mps 693 mmHg 22%
16:00 +19°C° 0 mm 5 mps 692 mmHg 21%
17:00 +17°C° 0 mm 5 mps 692 mmHg 27%
18:00 +16°C° 0 mm 5 mps 692 mmHg 34%
19:00 +14°C° 0 mm 6 mps 692 mmHg 41%
20:00 +13°C° 0 mm 6 mps 692 mmHg 49%
21:00 +11°C° 0 mm 6 mps 692 mmHg 58%
22:00 +10°C° 0 mm 5 mps 692 mmHg 66%
23:00 +9°C° 0 mm 6 mps 692 mmHg 69%

Pasado mañana, 8 Marzo, Lunes

Tiempo Temperatura Precipitaciones Viento Presión Humedad
00:00 +8°C° 0 mm 6 mps 692 mmHg 72%
01:00 +8°C° 0 mm 6 mps 692 mmHg 75%
02:00 +7°C° 0 mm 6 mps 692 mmHg 76%
03:00 +7°C° 0 mm 6 mps 692 mmHg 77%
04:00 +5°C° 0 mm 6 mps 692 mmHg 79%
05:00 +5°C° 0 mm 6 mps 693 mmHg 78%
06:00 +5°C° 0 mm 6 mps 693 mmHg 76%
07:00 +5°C° 0 mm 6 mps 694 mmHg 75%
08:00 +8°C° 0 mm 7 mps 694 mmHg 65%
09:00 +10°C° 0 mm 8 mps 695 mmHg 56%
10:00 +11°C° 0 mm 9 mps 695 mmHg 46%
11:00 +12°C° 0 mm 9 mps 695 mmHg 42%
12:00 +13°C° 0 mm 9 mps 695 mmHg 38%
13:00 +15°C° 0 mm 9 mps 695 mmHg 34%
14:00 +14°C° 0 mm 10 mps 695 mmHg 35%
15:00 +14°C° 0 mm 11 mps 694 mmHg 37%
16:00 +13°C° 0 mm 11 mps 694 mmHg 38%
17:00 +12°C° 0 mm 10 mps 694 mmHg 42%
18:00 +11°C° 0 mm 10 mps 694 mmHg 46%
19:00 +8°C° 0 mm 9 mps 694 mmHg 49%
20:00 +8°C° 0 mm 9 mps 694 mmHg 53%
21:00 +7°C° 0 mm 8 mps 694 mmHg 56%
22:00 +7°C° 0 mm 8 mps 695 mmHg 59%
23:00 +6°C° 0 mm 8 mps 694 mmHg 63%

9 Marzo, Martes

Tiempo Temperatura Precipitaciones Viento Presión Humedad
00:00 +6°C° 0 mm 7 mps 694 mmHg 66%
01:00 +6°C° 0 mm 7 mps 694 mmHg 70%
02:00 +5°C° 0 mm 7 mps 694 mmHg 71%
03:00 +5°C° 0 mm 6 mps 693 mmHg 72%
04:00 +4°C° 0 mm 6 mps 693 mmHg 73%
05:00 +4°C° 0 mm 6 mps 693 mmHg 72%
06:00 +4°C° 0 mm 6 mps 693 mmHg 70%
07:00 +3°C° 0 mm 6 mps 693 mmHg 68%
08:00 +5°C° 0 mm 7 mps 694 mmHg 60%
09:00 +7°C° 0 mm 9 mps 694 mmHg 53%
10:00 +8°C° 0 mm 10 mps 694 mmHg 45%
11:00 +9°C° 0 mm 11 mps 694 mmHg 41%
12:00 +9°C° 0 mm 11 mps 693 mmHg 37%
13:00 +10°C° 0 mm 12 mps 693 mmHg 32%
14:00 +10°C° 0 mm 12 mps 693 mmHg 34%
15:00 +10°C° 0 mm 12 mps 693 mmHg 35%
16:00 +9°C° 0 mm 12 mps 692 mmHg 36%
17:00 +8°C° 0 mm 11 mps 692 mmHg 43%
18:00 +7°C° 0 mm 11 mps 692 mmHg 50%
19:00 +6°C° 0 mm 10 mps 692 mmHg 57%
20:00 +5°C° 0 mm 10 mps 692 mmHg 61%
21:00 +5°C° 0 mm 10 mps 693 mmHg 65%
22:00 +3°C° 0 mm 9 mps 693 mmHg 69%
23:00 +3°C° 0 mm 9 mps 692 mmHg 69%

10 Marzo, Miércoles

Tiempo Temperatura Precipitaciones Viento Presión Humedad
00:00 +4°C° 0 mm 8 mps 692 mmHg 70%
01:00 +2°C° 0 mm 8 mps 692 mmHg 70%
02:00 +3°C° 0 mm 7 mps 692 mmHg 71%
03:00 +3°C° 0 mm 7 mps 692 mmHg 72%
04:00 +2°C° 0 mm 6 mps 691 mmHg 73%
05:00 +2°C° 0 mm 6 mps 692 mmHg 71%
06:00 +2°C° 0 mm 6 mps 692 mmHg 68%
07:00 +2°C° 0 mm 6 mps 692 mmHg 66%
08:00 +4°C° 0 mm 7 mps 692 mmHg 58%
09:00 +5°C° 0 mm 7 mps 692 mmHg 50%
10:00 +7°C° 0 mm 8 mps 693 mmHg 42%
11:00 +9°C° 0 mm 8 mps 692 mmHg 39%
12:00 +9°C° 0 mm 7 mps 692 mmHg 35%
13:00 +10°C° 0 mm 7 mps 692 mmHg 31%
14:00 +10°C° 0.1 mm 7 mps 692 mmHg 34%
15:00 +9°C° 0.1 mm 7 mps 691 mmHg 37%
16:00 +9°C° 0.1 mm 7 mps 691 mmHg 40%
17:00 +8°C° 0.1 mm 7 mps 691 mmHg 43%
18:00 +6°C° 0.1 mm 7 mps 691 mmHg 47%
19:00 +5°C° 0.1 mm 7 mps 691 mmHg 51%
20:00 +5°C° 0 mm 6 mps 692 mmHg 53%
21:00 +4°C° 0 mm 6 mps 692 mmHg 56%
22:00 +5°C° 0 mm 5 mps 692 mmHg 58%
23:00 +3°C° 0 mm 5 mps 692 mmHg 61%

11 Marzo, Jueves

Tiempo Temperatura Precipitaciones Viento Presión Humedad
00:00 +4°C° 0 mm 4 mps 692 mmHg 64%
01:00 +4°C° 0 mm 4 mps 692 mmHg 66%
02:00 +3°C° 0 mm 3 mps 692 mmHg 69%
03:00 +3°C° 0 mm 3 mps 692 mmHg 72%
04:00 +3°C° 0 mm 2 mps 692 mmHg 74%
05:00 +4°C° 0 mm 2 mps 692 mmHg 73%
06:00 +4°C° 0 mm 2 mps 693 mmHg 71%
07:00 +4°C° 0 mm 2 mps 693 mmHg 70%
08:00 +5°C° 0 mm 3 mps 694 mmHg 61%
09:00 +7°C° 0 mm 3 mps 694 mmHg 53%
10:00 +9°C° 0 mm 3 mps 695 mmHg 44%
11:00 +11°C° 0 mm 4 mps 695 mmHg 34%
12:00 +12°C° 0 mm 5 mps 695 mmHg 24%
13:00 +14°C° 0 mm 6 mps 695 mmHg 14%
14:00 +14°C° 0 mm 6 mps 695 mmHg 13%
15:00 +14°C° 0 mm 6 mps 694 mmHg 11%
16:00 +14°C° 0 mm 6 mps 694 mmHg 9%
17:00 +13°C° 0 mm 5 mps 694 mmHg 14%
18:00 +12°C° 0 mm 5 mps 695 mmHg 18%
19:00 +10°C° 0 mm 4 mps 695 mmHg 23%
20:00 +10°C° 0 mm 4 mps 695 mmHg 30%
21:00 +9°C° 0 mm 3 mps 695 mmHg 38%
22:00 +8°C° 0 mm 3 mps 696 mmHg 46%
23:00 +8°C° 0 mm 3 mps 696 mmHg 49%
Mostrar más

Necesitamos Su Consentimiento

Meteoprog y nuestros Proveedores de Servicios pueden almacenar y acceder a sus datos personales como cookies, identificadores de dispositivo u otras tecnologías similares de su dispositivo y procesar dichos datos para personalizar contenido y anuncios, además de ofrecer funciones de redes sociales y analizar el tráfico.

  • Almacenar y/o acceder a información en su dispositivo

    Se puede almacenar o acceder a cookies, identificadores de dispositivo u otra información de su dispositivo para los fines anteriormente indicados.

  • Anuncios y contenido personalizados, medición de anuncios y contenido, percepciones del público, y desarrollo de productos

    Los anuncios y el contenido pueden personalizarse en base a su perfil. Se pueden añadir más datos para personalizar mejor los anuncios y contenidos. Se puede medir el rendimiento de los anuncios y contenidos. Se puede obtener la percepción sobre el público que ha visto los anuncios y contenidos. Dichos datos pueden usarse para desarrollar o mejorar la experiencia del usuario, sistemas y software.

Al hacer clic en ‘Estoy De Acuerdo’ usted permitirá el uso de las cookies, identificadores de dispositivo, balizas web u otras tecnologías similares indicadas. Su configuración puede cambiarse desde el navegador de su dispositivo.

Para ciertos fines, los intereses legítimos pueden ser considerados por encima del consentimiento. Puede leer más sobre ello en nuestra Política de Privacidad y Cookies.